User: anonymous   Login
Location: *
(10.4782°N, 67.2163°W)
Time: 04:54:04
(UTC+00:00)
Language:

Meteor 1-11 - Orbit

View from above orbital plane
View from above orbital plane
View from above satellite
View from above satellite

Ground track
Ground track

The orbit data is extracted from the following two-line orbital elements,

1 05917U 72022A   24194.55723007  .00000273  00000-0  14983-3 0  9994
2 05917  81.2205 251.4992 0029750 154.0642 206.2027 14.08969202685200
Epoch (UTC): 12 July 2024 13:22:24
Eccentricity: 0.0029750
inclination: 81.2205°
perigee height: 841 km
apogee height: 884 km
right ascension of ascending node: 251.4992°
argument of perigee: 154.0642°
revolutions per day: 14.08969202
mean anomaly at epoch: 206.2027°
orbit number at epoch: 68520

The dashed part of the orbit path shows where the satellite is in the earth's shadow,  

DLR